Regional Weather Roundup
Issued by NWS

Home | Current Version | Previous Version | Text Only | Print | Product List | Glossary On
Versions: 1 2 3 4 5 6 7 8 9 10 11 12 13 14 15 16 17 18 19 20 21 22 23 24 25 26 27 28 29 30 31 32 33 34 35 36 37 38 39 40 41 42 43 44 45 46 47 48 49 50
000
ASUS45 KABQ 231510
RWRNM
NEW MEXICO REGIONAL WEATHER ROUNDUP
NATIONAL WEATHER SERVICE ALBUQUERQUE NM
900 AM MDT SUN APR 23 2017

NOTE: "FAIR" MEANS FEW OR NO CLOUDS BELOW 12,000 FEET AGL WITH NO
       SIGNIFICANT WEATHER OR OBSTRUCTIONS TO VISION.

      THIS PRODUCT IS RELEASED AS TWO VERSIONS.  ONE VERSION NEAR
      THE TOP OF THE HOUR CONTAINING PRELIMINARY DATA FROM ALBUQUERQUE
      AND OTHER STATIONS.  A FINAL VERSION WITH ADDITIONAL DATA IS
      ISSUED ABOUT 10 MINUTES AFTER THE HOUR.

NMZ501-503-504-510>518-231600-
NORTHWEST PLATEAU/NORTHCENTRAL MOUNTAINS

CITY           SKY/WX    TMP DP  RH WIND       PRES   REMARKS
FARMINGTON     FAIR      53  28  38 E17       30.12F
LOS ALAMOS     FAIR      43  29  56 S7        30.25F
SANTA FE       FAIR      48  31  51 SE10      30.24F
TAOS             N/A     39  23  52 CALM      30.26F
ANGEL FIRE     FAIR      38  29  67 SW7       30.25F WCI  33

$$
NMZ402-403-502-505>509-231600-
WESTCENTRAL MOUNTAINS/SOUTHWEST MOUNTAINS

CITY           SKY/WX    TMP DP  RH WIND       PRES   REMARKS
GALLUP         FAIR      56  29  35 S8        30.13F
GRANTS         FAIR      49  29  46 SE24      30.21F
SILVER CITY    FAIR      54  33  43 E14       30.23F

$$
NMZ407-409-411-412-231600-
SOUTHERN DESERTS

CITY           SKY/WX    TMP DP  RH WIND       PRES   REMARKS
DEMING         FAIR      58  35  42 E13       30.20F
LAS CRUCES     FAIR      58  34  40 SE13      30.22F
HOLLOMAN AFB   FAIR      56  33  42 S6        30.26F
ALAMOGORDO     FAIR      55  32  41 NW6       30.24F
T OR C         FAIR      57  32  38 S7        30.21F

$$
NMZ519>523-231600-
CENTRAL VALLEYS/CENTRAL HIGHLANDS

CITY           SKY/WX    TMP DP  RH WIND       PRES   REMARKS
ALBUQUERQUE    FAIR      50  29  44 CALM      30.23S
DOUBLE EAGLE   MOSUNNY   48  30  49 VRB5      30.24S
MORIARTY ARPT  FAIR      45  32  59 SE3       30.25F
CLINES CORNERS FAIR      46  30  53 SW13      30.25F
BELEN          FAIR      50  29  44 CALM      30.23S
SOCORRO        FAIR      53  32  44 SE12      30.21F

$$
NMZ524>526-539-540-231600-
SOUTHCENTRAL MOUNTAINS

CITY           SKY/WX    TMP DP  RH WIND       PRES   REMARKS
RUIDOSO          N/A     45  30  57 SE3       30.29F

$$
NMZ527>531-231600-
NORTHEAST HIGHLANDS/NORTHEAST PLAINS

CITY           SKY/WX    TMP DP  RH WIND       PRES   REMARKS
LAS VEGAS      FAIR      44  30  57 S26       30.20F
RATON          FAIR      44  31  60 CALM      30.16F
CLAYTON        FAIR      50  32  50 SW28G35   30.16F

$$
NMZ532>537-231600-
EASTCENTRAL PLAINS

CITY           SKY/WX    TMP DP  RH WIND       PRES   REMARKS
SANTA ROSA     FAIR      49  31  50 SW8       30.22F
TUCUMCARI      FAIR      55  32  41 S15       30.20F
CANNON AFB     FAIR      50  32  49 S12       30.25F
CLOVIS AIRPORT FAIR      50  30  46 S14       30.26S

$$
NMZ028-029-538-231600-
SOUTHEAST PLAINS

CITY           SKY/WX    TMP DP  RH WIND       PRES   REMARKS
ROSWELL        FAIR      55  33  43 S14       30.28
ARTESIA        FAIR      55  36  47 S16       30.27F
CARLSBAD       FAIR      55  36  48 SE13      30.26F
HOBBS          SUNNY     52  32  46 SE8       30.29F


$$




USA.gov is the U.S. government's official web portal to all federal, state and local government web resources and services.